Location: Mat�lon
(46.2791°N, 7.1028°E)
Time: 05:33:23
(UTC+00:00)

ATLAS 2AS CENTAUR R/B - Pass Details

Date: 18 September 2020
Orbit: 939 x 1273 km, 63.7° (Epoch: 19 October)

Event Time Altitude Azimuth Distance (km) Brightness Sun altitude
Exits shadow 22:59:05 18° 280° (W) 2,708 4.9 -42.0°
Maximum altitude 23:04:00 33° 331° (NNW) 2,004 4.4 -42.1°
Drops below altitude 10° 23:10:51 10° 33° (NNE) 3,188 5.6 -42.2°
Sets 23:13:57 0° 43° (NE) 4,114 6.2 -42.3°
